Weather in Findikli

Turkey     41°16′35″N   41°08′51″E
temp.,
°C
wind,
m/s
gust,
m/s
humid.,
%
clouds,
%
prec.,
mm/h
press.,
hPa
HPBL,
m
26 july, mon
mon2600:00+19se117710 0.0 1015246
03:00+19se21777 0.0 1015117
06:00+19se11746 0.0 1015106
09:00+22nw317522 0.0 1014408
12:00+21nw228545 0.1 1015327
15:00+21w228967 0.2 1014292
18:00+20ssw229063 0.8 1014270
21:00+20s338883 1.8 1016157
27 july, tue
tue2700:00+21sse117935 0.7 1015100
03:00+20sse118032 0.7 1015149
06:00+20s228039 0.1 1015101
09:00+20sw228678 0.5 1015239
12:00+21nw228375 0.9 1016249
15:00+20sw4589100 4.3 1016407
18:00+20sw1286100 1.3 1015212
21:00+20s338174 1.8 1015105
28 july, wed
wed2800:00+20se337834 0.3 1014134
03:00+19sw2285100 1.0 1014275
06:00+19wsw4589100 2.8 1015443
09:00+19w6790100 15.0 1015718
12:00+19nne128962 7.6 1015369
15:00+20w338226 8.8 1015467
18:00+20w238526 1.8 1015439
21:00+19ssw238416 2.4 1015281
29 july, thu
thu2900:00+18ssw338461 1.2 1015224
03:00+19se218252 2.6 101561
06:00+19ese118094 0.9 101569
09:00+20ene238361 1.3 1015274
12:00+21nnw438154 0.2 1014501
15:00+20wnw128552 0.5 1014385
18:00+20ssw118354 0.1 1014378
21:00+19se21832 0.1 101498
30 july, fri
fri3000:00+19se22782 0.0 101358
03:00+19se327712 0.0 101365
06:00+19se22764 0.0 101363
09:00+22nw327632 0.0 1012423
12:00+21nnw338856 0.2 1012332
15:00+21nw119055 0.9 1011197
18:00+21sw118633 0.4 1011213
21:00+20wsw11849 0.7 1012117